Back to catalog

STARLINK-35548

AliveCommunicationsVLEO
NORAD 66203·PAYLOAD·🇺🇸 United States

Launched Oct 26, 2025 from Cape Canaveral Space Force Station

Loading…

Next Passes (next 24 hours)

TLE

FreshSource: CelesTrak SupGP

Epoch: Sep 14, 2026, 15:53 UTC

1 66203C 25243AC  26257.66229167 -.00045346  00000+0 -13393-2 0  2575
2 66203  53.1593  86.7214 0001275  89.9284  38.5597 15.34424202    13

Track STARLINK-35548 in real time with AllMySat

Download on the App Store